Location: Aytr�
(46.1357°N, 1.1145°W)
Time: 17:49:33
(UTC+00:00)

ARGOS - Pass Details

Date: 03 March 2021
Orbit: 819 x 835 km, 98.4° (Epoch: 16 April)

Event Time Altitude Azimuth Distance (km) Brightness Sun altitude
Rises 19:29:49 0° 181° (S) 3,365 6.2 -17.4°
Reaches altitude 10° 19:32:14 10° 186° (S) 2,437 5.6 -17.8°
Maximum altitude 19:37:28 49° 261° (W) 1,074 4.1 -18.7°
Drops below altitude 10° 19:42:44 10° 336° (NNW) 2,458 6.1 -19.6°
Sets 19:45:12 0° 342° (NNW) 3,396 6.8 -20.0°
